Tracking 19709 objects as of 17-Jun-2019
HD Live streaming from Space Station
objects crossing your sky now

DELTA 1 DEB

Track DELTA 1 DEB now!
10-day predictions


NORAD ID: 7021
Int'l Code: 1973-086M
Perigee: 1,420.5 km
Apogee: 1,691.8 km
Inclination: 101.7 °
Period: 117.1 minutes
Semi major axis: 7927 km
RCS: 0.1794 m2 (medium)
Launch date: November 6, 1973
Source: United States (US)
Launch site: AIR FORCE WESTERN TEST RANGE (AFWTR)

Note: This is SATELLITE DEBRIS
aabbcc
Your satellite tracking list
Your tracking list is empty




NASA's NSSDC Master Catalog

Two Line Element Set (TLE):
1  7021U 73086M   19167.96072935 +.00000425 +00000-0 +37925-2 0  9998
2  7021 101.6826 313.0820 0171100 291.4615 183.0178 12.30066526034557
Source of the keplerian elements: AFSPC